Flag for Poland Weather past 2 weeks in Ruda Śląska, Poland

Now
57 °F

Broken clouds.


Feels Like: 55 °F
Forecast: 48 / 58 °F
Wind: 12 mph from Northwest

Location: Katowice Airport

Current Time: May 26, 2015 at 3:53:56 PM

Latest Report: May 26, 2015 at 3:30 PM


Visibility: 4 mi

Pressure: 29.83 "Hg

Humidity: 94%

Dew point: 55 °F

Location of Ruda ŚląskaLocation

Historic Weather in Ruda Śląska — Graph

°F

Ruda Śląska temperature yesterday

Maximum temperature yesterday: 63 °F (at 12:30 PM)
Minimum temperature yesterday: 46 °F (at 2:30 AM)
Average temperature yesterday: 56 °F

Past Weeks' High & Low Weather Summary

 TemperatureHumidityPressure
High75 °F (May 19, 1:00 PM)100% (May 20, 4:30 AM)30.36 "Hg (May 20, 4:30 AM)
Low34 °F (May 15, 3:30 AM)25% (May 12, 2:30 PM)29.74 "Hg (May 14, 6:00 AM)
Average55 °F72%30.01 "Hg
* Reported May 11 2:00 PM — May 26 2:30 PM, Ruda Śląska, Weather by CustomWeather, © 2015

Note: Actual official high and low records may vary slightly from our data, if they occured in-between our weather recording intervals... More about our weather records

Advertising

Ruda Śląska weather history for previous 24 hours

 ConditionsComfort  
Time TempWeatherWind HumidityBarometerVisibility
2:30 PM
Tue, May 26
57 °FRain showers. Broken clouds.7 mph100%29.83 "Hg2 mi
2:00 PM59 °FSprinkles. Broken clouds.6 mph88%29.83 "Hg4 mi
1:30 PM59 °FSprinkles. Broken clouds.5 mph88%29.83 "Hg4 mi
1:00 PM59 °FSprinkles. Broken clouds.6 mph88%29.83 "Hg4 mi
12:30 PM59 °FSprinkles. Broken clouds.5 mph94%29.80 "Hg4 mi
12:00 PM57 °FRain showers. Fog.7 mph94%29.80 "Hg2 mi
11:30 AM57 °FSprinkles. Broken clouds.6 mph94%29.80 "Hg4 mi
11:00 AM57 °FBroken clouds.3 mph94%29.80 "Hg4 mi
10:30 AM57 °FSprinkles. Fog.5 mph94%29.80 "Hg3 mi
10:00 AM57 °FSprinkles. Fog.8 mph94%29.80 "Hg3 mi
9:30 AM57 °FSprinkles. Fog.7 mph94%29.80 "Hg2 mi
9:00 AM55 °FLight rain. Fog.6 mph94%29.80 "Hg3 mi
8:30 AM55 °FFog.5 mph94%29.80 "Hg3 mi
8:00 AM55 °FLight rain. Fog.1 mph94%29.80 "Hg3 mi
7:30 AM55 °FLight rain. Fog.3 mph94%29.77 "Hg2 mi
7:00 AM54 °FLight rain. Fog.3 mph100%29.77 "Hg2 mi
6:30 AM55 °FFog.No wind94%29.77 "Hg2 mi
6:00 AM54 °FFog.No wind100%29.77 "Hg1 mi
5:30 AM54 °FFog.3 mph100%29.77 "Hg1 mi
5:00 AM54 °FFog.1 mph100%29.77 "Hg1 mi
4:30 AM54 °FFog.1 mph100%29.77 "Hg2 mi
4:00 AM54 °FFog.No wind100%29.77 "Hg2 mi
3:30 AM54 °FFog.2 mph100%29.77 "Hg2 mi
3:00 AM54 °FFog.2 mph100%29.77 "Hg2 mi
2:30 AM54 °FLight rain. Fog.5 mph94%29.77 "Hg1 mi
2:00 AM55 °FLight rain. Fog.2 mph94%29.80 "Hg2 mi
1:30 AM54 °FLight rain. Fog.1 mph100%29.80 "Hg2 mi
1:00 AM54 °FRain. Fog.2 mph100%29.80 "Hg2 mi
12:30 AM55 °FRain. Fog.5 mph94%29.80 "Hg2 mi
12:00 AM55 °FPassing clouds.1 mph94%29.80 "Hg4 mi
11:30 PM
Mon, May 25
55 °FClear.No wind94%29.80 "Hg4 mi
11:00 PM55 °FPassing clouds.1 mph94%29.80 "Hg4 mi
10:30 PM55 °FPassing clouds.2 mph94%29.83 "Hg4 mi
10:00 PM55 °FPassing clouds.2 mph94%29.83 "Hg4 mi
9:30 PM55 °FLight rain. Partly sunny.2 mph94%29.83 "Hg4 mi
9:00 PM55 °FPartly sunny.2 mph100%29.83 "Hg5 mi
8:30 PM57 °FPartly sunny.3 mph88%29.83 "HgN/A
8:00 PM57 °FRain. Partly sunny.5 mph88%29.83 "Hg4 mi
7:30 PM59 °FLight rain. Partly sunny.5 mph82%29.83 "HgN/A
7:00 PM59 °FPartly sunny.3 mph82%29.83 "HgN/A
6:30 PM59 °FPartly sunny.5 mph82%29.83 "HgN/A
6:00 PM61 °FPartly sunny.6 mph77%29.86 "HgN/A
5:30 PM61 °FPartly sunny.6 mph72%29.86 "HgN/A
5:00 PM61 °FPartly sunny.7 mph72%29.86 "HgN/A
4:30 PM61 °FPartly sunny.6 mph72%29.86 "HgN/A
4:00 PM61 °FPartly sunny.7 mph72%29.86 "HgN/A
3:30 PM61 °FPartly sunny.8 mph72%29.86 "HgN/A
3:00 PM61 °FPartly sunny.9 mph72%29.89 "HgN/A
Weather by CustomWeather, © 2015

See weather overviewHow to use our weather pages